Time,TemperatureF,DewpointF,PressureIn,WindDirection,WindDirectionDegrees,WindSpeedMPH,WindSpeedGustMPH,Humidity,HourlyPrecipIn,Conditions,Clouds,dailyrainin,SolarRadiationWatts/m^2,SoftwareType,DateUTC
2014-07-23 00:10:00,81.1,72.0,30.00,East,93,2.0,2.0,73,0.00,,,0.00,0,weatherlink.com 1.10,2014-07-23 05:10:00,
2014-07-23 00:25:00,80.2,72.0,30.00,South,191,2.0,3.0,76,0.00,,,0.00,0,weatherlink.com 1.10,2014-07-23 05:25:00,
2014-07-23 00:40:00,79.6,72.0,30.00,South,191,0.0,2.0,77,0.00,,,0.00,0,weatherlink.com 1.10,2014-07-23 05:40:00,
2014-07-23 00:55:00,79.3,72.0,30.00,South,191,0.0,1.0,78,0.00,,,0.00,0,weatherlink.com 1.10,2014-07-23 05:55:00,
2014-07-23 01:10:00,79.0,72.0,30.00,South,191,0.0,0.0,79,0.00,,,0.00,0,weatherlink.com 1.10,2014-07-23 06:10:00,
2014-07-23 01:25:00,78.6,72.0,29.99,South,191,1.0,2.0,79,0.00,,,0.00,0,weatherlink.com 1.10,2014-07-23 06:25:00,
2014-07-23 01:40:00,78.5,72.0,30.00,South,191,1.0,2.0,79,0.00,,,0.00,0,weatherlink.com 1.10,2014-07-23 06:40:00,
2014-07-23 01:55:00,78.2,71.0,30.00,South,191,0.0,1.0,79,0.00,,,0.00,0,weatherlink.com 1.10,2014-07-23 06:55:00,
2014-07-23 02:10:00,77.8,71.0,30.00,South,191,0.0,1.0,80,0.00,,,0.00,0,weatherlink.com 1.10,2014-07-23 07:10:00,
2014-07-23 02:25:00,77.2,71.0,30.00,South,191,2.0,2.0,81,0.00,,,0.00,0,weatherlink.com 1.10,2014-07-23 07:25:00,
2014-07-23 02:40:00,77.0,71.0,30.00,South,191,0.0,2.0,81,0.00,,,0.00,0,weatherlink.com 1.10,2014-07-23 07:40:00,
2014-07-23 02:55:00,76.7,71.0,30.00,South,191,1.0,2.0,83,0.00,,,0.00,0,weatherlink.com 1.10,2014-07-23 07:55:00,
2014-07-23 03:10:00,76.2,71.0,30.01,South,191,1.0,3.0,84,0.00,,,0.00,0,weatherlink.com 1.10,2014-07-23 08:10:00,
2014-07-23 03:25:00,76.1,71.0,30.01,South,191,0.0,1.0,84,0.00,,,0.00,0,weatherlink.com 1.10,2014-07-23 08:25:00,
2014-07-23 03:40:00,75.9,71.0,30.01,South,191,0.0,0.0,84,0.00,,,0.00,0,weatherlink.com 1.10,2014-07-23 08:40:00,
2014-07-23 03:55:00,75.7,71.0,30.01,South,191,1.0,2.0,85,0.00,,,0.00,0,weatherlink.com 1.10,2014-07-23 08:55:00,
2014-07-23 04:10:00,75.2,71.0,30.01,South,191,1.0,2.0,85,0.00,,,0.00,0,weatherlink.com 1.10,2014-07-23 09:10:00,
2014-07-23 04:25:00,75.0,71.0,30.01,South,191,0.0,2.0,86,0.00,,,0.00,0,weatherlink.com 1.10,2014-07-23 09:25:00,
2014-07-23 04:40:00,74.6,70.0,30.01,South,191,0.0,1.0,86,0.00,,,0.00,0,weatherlink.com 1.10,2014-07-23 09:40:00,
2014-07-23 04:55:00,74.2,70.0,30.01,South,191,0.0,0.0,87,0.00,,,0.00,0,weatherlink.com 1.10,2014-07-23 09:55:00,
2014-07-23 05:10:00,74.2,71.0,30.02,South,191,0.0,1.0,88,0.00,,,0.00,0,weatherlink.com 1.10,2014-07-23 10:10:00,
2014-07-23 05:25:00,73.9,70.0,30.02,South,191,0.0,0.0,88,0.00,,,0.00,0,weatherlink.com 1.10,2014-07-23 10:25:00,
2014-07-23 05:40:00,73.8,70.0,30.02,South,191,1.0,2.0,88,0.00,,,0.00,0,weatherlink.com 1.10,2014-07-23 10:40:00,
2014-07-23 05:55:00,73.4,70.0,30.02,SSW,209,4.0,4.0,88,0.00,,,0.00,0,weatherlink.com 1.10,2014-07-23 10:55:00,
2014-07-23 06:10:00,72.9,70.0,30.02,SSW,209,0.0,3.0,90,0.00,,,0.00,0,weatherlink.com 1.10,2014-07-23 11:10:00,
2014-07-23 06:25:00,72.9,70.0,30.02,SSW,209,2.0,2.0,90,0.00,,,0.00,0,weatherlink.com 1.10,2014-07-23 11:25:00,
2014-07-23 06:40:00,72.5,70.0,30.02,SW,214,2.0,4.0,90,0.00,,,0.00,0,weatherlink.com 1.10,2014-07-23 11:40:00,
2014-07-23 06:55:00,72.3,69.0,30.02,SW,214,1.0,2.0,90,0.00,,,0.00,14,weatherlink.com 1.10,2014-07-23 11:55:00,
2014-07-23 07:10:00,72.5,70.0,30.03,SW,214,1.0,3.0,91,0.00,,,0.00,19,weatherlink.com 1.10,2014-07-23 12:10:00,
2014-07-23 07:25:00,72.6,70.0,30.03,SW,214,1.0,2.0,91,0.00,,,0.00,62,weatherlink.com 1.10,2014-07-23 12:25:00,
2014-07-23 07:41:00,73.1,70.0,30.03,SW,214,0.0,2.0,91,0.00,,,0.00,100,weatherlink.com 1.10,2014-07-23 12:41:00,
2014-07-23 07:56:00,74.0,71.0,30.03,SW,214,0.0,0.0,91,0.00,,,0.00,142,weatherlink.com 1.10,2014-07-23 12:56:00,
2014-07-23 08:11:00,75.4,72.0,30.04,SSE,158,0.0,3.0,90,0.00,,,0.00,186,weatherlink.com 1.10,2014-07-23 13:11:00,
2014-07-23 08:26:00,77.0,73.0,30.04,ESE,119,1.0,3.0,88,0.00,,,0.00,230,weatherlink.com 1.10,2014-07-23 13:26:00,
2014-07-23 08:41:00,79.3,73.0,30.05,South,170,0.0,3.0,81,0.00,,,0.00,276,weatherlink.com 1.10,2014-07-23 13:41:00,
2014-07-23 08:56:00,80.9,73.0,30.05,South,175,1.0,5.0,78,0.00,,,0.00,323,weatherlink.com 1.10,2014-07-23 13:56:00,
2014-07-23 09:11:00,82.1,74.0,30.05,SE,134,4.0,5.0,75,0.00,,,0.00,371,weatherlink.com 1.10,2014-07-23 14:11:00,
2014-07-23 09:26:00,82.6,74.0,30.05,SSW,206,2.0,4.0,74,0.00,,,0.00,418,weatherlink.com 1.10,2014-07-23 14:26:00,
2014-07-23 09:41:00,85.5,74.0,30.05,SSW,205,2.0,3.0,69,0.00,,,0.00,468,weatherlink.com 1.10,2014-07-23 14:41:00,
2014-07-23 09:56:00,86.6,74.0,30.05,South,175,1.0,3.0,66,0.00,,,0.00,513,weatherlink.com 1.10,2014-07-23 14:56:00,
2014-07-23 10:11:00,90.8,74.0,30.05,East,88,3.0,6.0,58,0.00,,,0.00,559,weatherlink.com 1.10,2014-07-23 15:11:00,
2014-07-23 10:26:00,89.0,72.0,30.04,NE,34,4.0,6.0,57,0.00,,,0.00,598,weatherlink.com 1.10,2014-07-23 15:26:00,
2014-07-23 10:41:00,89.3,73.0,30.04,ESE,106,1.0,8.0,59,0.00,,,0.00,633,weatherlink.com 1.10,2014-07-23 15:41:00,
2014-07-23 10:56:00,89.4,73.0,30.04,South,190,4.0,10.0,59,0.00,,,0.00,649,weatherlink.com 1.10,2014-07-23 15:56:00,
2014-07-23 11:11:00,91.2,74.0,30.04,ESE,107,11.0,11.0,57,0.00,,,0.00,738,weatherlink.com 1.10,2014-07-23 16:11:00,
2014-07-23 11:27:00,92.1,74.0,30.03,South,180,2.0,12.0,55,0.00,,,0.00,788,weatherlink.com 1.10,2014-07-23 16:27:00,
2014-07-23 11:42:00,92.4,73.0,30.04,ESE,113,4.0,8.0,54,0.00,,,0.00,338,weatherlink.com 1.10,2014-07-23 16:42:00,
2014-07-23 11:57:00,91.1,73.0,30.04,ENE,74,3.0,14.0,55,0.00,,,0.00,835,weatherlink.com 1.10,2014-07-23 16:57:00,
2014-07-23 12:12:00,90.0,73.0,30.04,East,82,7.0,10.0,58,0.00,,,0.00,872,weatherlink.com 1.10,2014-07-23 17:12:00,
2014-07-23 12:27:00,93.3,73.0,30.03,NNE,12,1.0,13.0,52,0.00,,,0.00,856,weatherlink.com 1.10,2014-07-23 17:27:00,
2014-07-23 12:42:00,92.0,73.0,30.03,East,82,4.0,13.0,54,0.00,,,0.00,891,weatherlink.com 1.10,2014-07-23 17:42:00,
2014-07-23 12:57:00,92.9,73.0,30.02,South,170,4.0,9.0,53,0.00,,,0.00,937,weatherlink.com 1.10,2014-07-23 17:57:00,
2014-07-23 13:12:00,93.4,74.0,30.02,North,350,5.0,9.0,53,0.00,,,0.00,963,weatherlink.com 1.10,2014-07-23 18:12:00,
2014-07-23 13:27:00,95.0,73.0,30.02,East,79,12.0,12.0,49,0.00,,,0.00,939,weatherlink.com 1.10,2014-07-23 18:27:00,
2014-07-23 13:42:00,95.7,72.0,30.01,ESE,115,3.0,10.0,46,0.00,,,0.00,900,weatherlink.com 1.10,2014-07-23 18:42:00,
2014-07-23 13:57:00,99.6,73.0,30.01,NNW,334,3.0,7.0,43,0.00,,,0.00,631,weatherlink.com 1.10,2014-07-23 18:57:00,